Location: ??
(35.1715°N, 139.6450°E)
Time: 20:34:31
(UTC+00:00)

Cosmos 1814 Rocket - Pass Details

Date: 05 August 2024
Orbit: 743 x 784 km, 74.1° (Epoch: 18 September)

Event Time Altitude Azimuth Distance (km) Brightness Sun altitude
Exits shadow 17:17:41 61° 314° (NW) 883 4.2 -27.1°
Drops below altitude 10° 17:22:34 10° 11° (N) 2,345 7.2 -26.4°
Sets 17:25:00 0° 14° (NNE) 3,278 8.2 -26.1°
